This is the latest recevied weather packets stored in our database for station/object VE1DX. If no packets are shown the sender has not sent any weather packets the latest 10 day(s).
| Time | Temp. | Humidity | Pressure | Rain* | Wind** | Luminosity | Snow |
|---|---|---|---|---|---|---|---|
| 1777647317 | 8.33° C | 94% | 1006.5 hPa | 0.76 mm | - | - | - |
| 1777647017 | 8.33° C | 94% | 1006.7 hPa | 0.76 mm | - | - | - |
| 1777646717 | 8.33° C | 94% | 1006.8 hPa | 0.76 mm | - | - | - |
| 1777646418 | 8.33° C | 94% | 1006.8 hPa | 0.76 mm | - | - | - |
| 1777646117 | 8.33° C | 94% | 1006.8 hPa | 1.02 mm | - | - | - |
| 1777645818 | 8.33° C | 94% | 1006.7 hPa | 1.27 mm | - | - | - |
| 1777645517 | 8.33° C | 94% | 1006.8 hPa | 1.78 mm | - | - | - |
| 1777645217 | 8.33° C | 94% | 1006.7 hPa | 2.29 mm | - | - | - |
| 1777644917 | 8.33° C | 94% | 1006.8 hPa | 2.29 mm | - | - | - |
| 1777644617 | 8.33° C | 94% | 1006.9 hPa | 2.54 mm | - | - | - |
| 1777644317 | 8.33° C | 94% | 1007 hPa | 2.54 mm | - | - | - |
| 1777644017 | 8.33° C | 94% | 1007.1 hPa | 2.79 mm | - | - | - |
| 1777643718 | 8.33° C | 94% | 1007 hPa | 2.79 mm | - | - | - |
| 1777643417 | 8.33° C | 94% | 1007.1 hPa | 3.05 mm | - | - | - |
| 1777643117 | 7.78° C | 94% | 1007.1 hPa | 2.79 mm | - | - | - |
| 1777642817 | 7.78° C | 94% | 1007.2 hPa | 2.54 mm | - | - | - |
| 1777642518 | 8.33° C | 94% | 1007.1 hPa | 2.54 mm | - | - | - |
| 1777642217 | 8.33° C | 94% | 1007.3 hPa | 2.29 mm | - | - | - |
| 1777641917 | 8.33° C | 94% | 1007.2 hPa | 1.78 mm | - | - | - |
| 1777641618 | 8.33° C | 94% | 1007.3 hPa | 1.27 mm | - | - | - |
| 1777641317 | 8.33° C | 94% | 1007.5 hPa | 1.27 mm | - | - | - |
| 1777641017 | 8.33° C | 94% | 1007.4 hPa | 1.02 mm | - | - | - |
| 1777640717 | 8.33° C | 94% | 1007.5 hPa | 0.76 mm | - | - | - |
| 1777640417 | 8.33° C | 94% | 1007.3 hPa | 0.51 mm | - | - | - |
| 1777640117 | 8.33° C | 94% | 1007.4 hPa | 0.51 mm | - | - | - |
* Rain latest hour (hover to see other rain measurements)
** Current wind speed in m/s (hover to see current wind gust speed)